Des Moines, IA

5:21 PM CST on February 25, 2017 (GMT -0600)
Des Moines International

Weather History for KDSM - November, 2013

Change the Weather History Date:

Tuesday, November 19, 2013

  Actual Average Record
Temperature  
Mean Temperature 45 °F 37 °F  
Max Temperature 56 °F 46 °F 75 °F (1942)
Min Temperature 33 °F 29 °F 3 °F (1914)
Degree Days  
Heating Degree Days 20 28  
Month to date heating degree days 403 434  
Since 1 July heating degree days 793 918  
Cooling Degree Days 0 0  
Month to date cooling degree days 0 0  
Year to date cooling degree days 1353 1066  
Moisture  
Dew Point 29 °F    
Average Humidity 60    
Maximum Humidity 82    
Minimum Humidity 38    
Precipitation  
Precipitation 0.00 in 0.07 in 2.47 in (1948)
Month to date precipitation 1.15 1.49  
Year to date precipitation 30.97 33.90  
Snow  
Snow 0.00 in 0.10 in 2.60 in (1981)
Month to date snowfall 0.4 0.9  
Since 1 July snowfall 0.4 1.3  
Since 1 September snowfall 0.4 1.3  
Snow Depth 0.00 in    
Sea Level Pressure  
Sea Level Pressure 30.15 in    
Wind  
Wind Speed 16 mph (SSE)    
Max Wind Speed 24 mph    
Max Gust Speed 30 mph    
Visibility 10 miles    
Events      
T = Trace of Precipitation, MM = Missing Value Source: NWS Daily Summary

Daily Weather History Graph

Daily Weather History Graph

Search for Another Location

Airport or City:

Trip Planner

Search our weather history database for the weather conditions in past years. The results will help you decide how hot, cold, wet, or windy it might be!

Date:

Astronomy

Nov. 19, 2013 Rise Set
Actual Time 7:08 AM CST 4:51 PM CST
Civil Twilight 6:38 AM CST 5:21 PM CST
Nautical Twilight 6:04 AM CST 5:55 PM CST
Astronomical Twilight 5:31 AM CST 6:28 PM CST
Moon 6:42 PM CST (11/19) 8:48 AM CST (11/19)
Length of Visible Light 10h 43m
Length of Day
9h 42m
Waning Gibbous, 96% of the Moon is Illuminated
Nov 19
Waning Gibbous
Nov 25
Last Quarter
Dec 2
New
Dec 9
First Quarter
Dec 17
Full

Hourly Weather History & Observations

Time (CST) Temp. Windchill Dew Point Humidity Pressure Visibility Wind Dir Wind Speed Gust Speed Precip Events Conditions
12:54 AM 36.0 °F 29.6 °F 28.9 °F 76% 30.28 in 10.0 mi SE 8.1 mph - N/A   Clear
1:54 AM 35.1 °F 29.3 °F 28.0 °F 76% 30.28 in 10.0 mi SE 6.9 mph - N/A   Clear
2:54 AM 34.0 °F 26.6 °F 28.0 °F 79% 30.28 in 10.0 mi SSE 9.2 mph - N/A   Clear
3:54 AM 35.1 °F 27.9 °F 28.9 °F 78% 30.27 in 10.0 mi SE 9.2 mph - N/A   Partly Cloudy
4:54 AM 36.0 °F 28.5 °F 28.0 °F 73% 30.27 in 10.0 mi SE 10.4 mph - N/A   Partly Cloudy
5:54 AM 36.0 °F 28.5 °F 28.0 °F 73% 30.26 in 10.0 mi SE 10.4 mph - N/A   Scattered Clouds
6:54 AM 36.0 °F 27.1 °F 28.0 °F 73% 30.26 in 10.0 mi SE 13.8 mph - N/A   Scattered Clouds
7:54 AM 36.0 °F 27.1 °F 28.0 °F 73% 30.25 in 10.0 mi SSE 13.8 mph - N/A   Mostly Cloudy
8:54 AM 39.0 °F 30.3 °F 28.9 °F 67% 30.25 in 10.0 mi SSE 16.1 mph - N/A   Mostly Cloudy
9:54 AM 42.1 °F 34.5 °F 28.9 °F 60% 30.23 in 10.0 mi SSE 15.0 mph - N/A   Scattered Clouds
10:54 AM 48.0 °F - 30.9 °F 52% 30.21 in 10.0 mi SSE 13.8 mph - N/A   Scattered Clouds
11:54 AM 51.1 °F - 30.9 °F 46% 30.17 in 10.0 mi SSE 18.4 mph - N/A   Scattered Clouds
12:54 PM 54.0 °F - 30.0 °F 40% 30.14 in 10.0 mi SSE 21.9 mph 26.5 mph N/A   Scattered Clouds
1:54 PM 55.9 °F - 30.0 °F 37% 30.10 in 10.0 mi South 18.4 mph - N/A   Partly Cloudy
2:54 PM 55.9 °F - 30.0 °F 37% 30.08 in 10.0 mi SSE 19.6 mph 25.3 mph N/A   Partly Cloudy
3:54 PM 54.0 °F - 28.9 °F 38% 30.06 in 10.0 mi SSE 21.9 mph 26.5 mph N/A   Partly Cloudy
4:54 PM 51.1 °F - 28.9 °F 43% 30.05 in 10.0 mi SSE 17.3 mph - N/A   Partly Cloudy
5:54 PM 48.9 °F - 30.0 °F 48% 30.07 in 10.0 mi SE 18.4 mph - N/A   Scattered Clouds
6:54 PM 48.0 °F - 30.0 °F 50% 30.06 in 10.0 mi SE 16.1 mph - N/A   Mostly Cloudy
7:54 PM 48.0 °F - 30.0 °F 50% 30.06 in 10.0 mi SSE 21.9 mph 28.8 mph N/A   Overcast
8:54 PM 48.0 °F - 28.0 °F 46% 30.05 in 10.0 mi SSE 18.4 mph - N/A   Overcast
9:54 PM 48.0 °F - 28.0 °F 46% 30.04 in 10.0 mi SSE 18.4 mph 28.8 mph N/A   Overcast
10:54 PM 48.0 °F - 27.0 °F 44% 30.03 in 10.0 mi SSE 19.6 mph - N/A   Overcast
11:54 PM 46.9 °F - 27.0 °F 46% 30.03 in 10.0 mi SSE 17.3 mph - N/A   Overcast